Time,TemperatureF,DewpointF,PressureIn,WindDirection,WindDirectionDegrees,WindSpeedMPH,WindSpeedGustMPH,Humidity,HourlyPrecipIn,Conditions,Clouds,dailyrainin,SoftwareType,DateUTC
2013-05-24 00:02:00,47.0,46.0,30.26,West,260,0.0,0.0,95,0.00,,,0.02,,2013-05-24 05:02:00,
2013-05-24 00:12:00,47.0,46.0,30.26,West,260,0.0,0.0,95,0.00,,,0.02,,2013-05-24 05:12:00,
2013-05-24 00:22:00,46.0,45.0,30.26,West,260,0.0,0.0,95,0.00,,,0.02,,2013-05-24 05:22:00,
2013-05-24 00:32:00,45.0,44.0,30.28,West,260,0.0,0.0,95,0.00,,,0.02,,2013-05-24 05:32:00,
2013-05-24 00:42:00,45.0,44.0,30.28,West,260,0.0,0.0,95,0.00,,,0.02,,2013-05-24 05:42:00,
2013-05-24 00:52:00,45.0,44.0,30.28,West,260,0.0,0.0,95,0.00,,,0.02,,2013-05-24 05:52:00,
2013-05-24 01:02:00,44.0,43.0,30.28,West,260,0.0,0.0,96,0.00,,,0.02,,2013-05-24 06:02:00,
2013-05-24 01:12:00,44.0,43.0,30.28,West,260,0.0,0.0,96,0.00,,,0.02,,2013-05-24 06:12:00,
2013-05-24 01:21:00,44.0,43.0,30.29,West,260,0.0,0.0,96,0.00,,,0.02,,2013-05-24 06:21:00,
2013-05-24 01:32:00,44.0,43.0,30.29,West,260,0.0,0.0,96,0.00,,,0.02,,2013-05-24 06:32:00,
2013-05-24 01:41:00,44.0,43.0,30.29,West,260,0.0,0.0,96,0.00,,,0.02,,2013-05-24 06:41:00,
2013-05-24 01:52:00,43.0,42.0,30.29,West,260,0.0,0.0,96,0.00,,,0.02,,2013-05-24 06:52:00,
2013-05-24 02:01:00,43.0,42.0,30.29,West,260,0.0,0.0,96,0.00,,,0.02,,2013-05-24 07:01:00,
2013-05-24 02:11:00,43.0,42.0,30.29,West,260,0.0,0.0,96,0.00,,,0.02,,2013-05-24 07:11:00,
2013-05-24 02:22:00,43.0,42.0,30.30,West,260,0.0,0.0,96,0.00,,,0.02,,2013-05-24 07:22:00,
2013-05-24 02:32:00,42.0,41.0,30.31,West,260,0.0,0.0,96,0.00,,,0.02,,2013-05-24 07:32:00,
2013-05-24 02:42:00,42.0,41.0,30.31,West,260,0.0,0.0,96,0.00,,,0.02,,2013-05-24 07:42:00,
2013-05-24 02:52:00,42.0,41.0,30.32,West,260,0.0,0.0,96,0.00,,,0.02,,2013-05-24 07:52:00,
2013-05-24 03:02:00,42.0,41.0,30.32,West,260,0.0,0.0,96,0.00,,,0.02,,2013-05-24 08:02:00,
2013-05-24 03:11:00,42.0,41.0,30.32,West,260,0.0,0.0,96,0.00,,,0.02,,2013-05-24 08:11:00,
2013-05-24 03:22:00,42.0,41.0,30.32,West,260,0.0,0.0,95,0.00,,,0.02,,2013-05-24 08:22:00,
2013-05-24 03:32:00,41.0,40.0,30.32,West,260,0.0,0.0,96,0.00,,,0.02,,2013-05-24 08:32:00,
2013-05-24 03:42:00,41.0,40.0,30.32,West,260,0.0,0.0,96,0.00,,,0.02,,2013-05-24 08:42:00,
2013-05-24 03:52:00,41.0,40.0,30.32,West,260,0.0,0.0,96,0.00,,,0.02,,2013-05-24 08:52:00,
2013-05-24 04:02:00,41.0,40.0,30.32,West,260,0.0,0.0,95,0.00,,,0.02,,2013-05-24 09:02:00,
2013-05-24 04:11:00,41.0,40.0,30.32,West,260,0.0,0.0,95,0.00,,,0.02,,2013-05-24 09:11:00,
2013-05-24 04:21:00,41.0,39.0,30.31,West,260,0.0,0.0,94,0.00,,,0.02,,2013-05-24 09:21:00,
2013-05-24 04:32:00,41.0,39.0,30.32,West,260,0.0,0.0,93,0.00,,,0.02,,2013-05-24 09:32:00,
2013-05-24 04:42:00,41.0,39.0,30.32,West,260,0.0,0.0,93,0.00,,,0.02,,2013-05-24 09:42:00,
2013-05-24 04:52:00,41.0,39.0,30.32,West,260,0.0,0.0,92,0.00,,,0.02,,2013-05-24 09:52:00,
2013-05-24 05:03:00,40.0,38.0,30.33,West,260,0.0,0.0,92,0.00,,,0.02,,2013-05-24 10:03:00,
2013-05-24 05:12:00,40.0,38.0,30.33,West,260,0.0,0.0,92,0.00,,,0.02,,2013-05-24 10:12:00,
2013-05-24 05:22:00,40.0,38.0,30.32,West,260,0.0,0.0,92,0.00,,,0.02,,2013-05-24 10:22:00,
2013-05-24 05:32:00,40.0,38.0,30.33,West,260,0.0,0.0,92,0.00,,,0.02,,2013-05-24 10:32:00,
2013-05-24 05:42:00,40.0,38.0,30.33,West,260,0.0,0.0,92,0.00,,,0.02,,2013-05-24 10:42:00,
2013-05-24 05:52:00,40.0,38.0,30.34,West,260,0.0,0.0,93,0.00,,,0.02,,2013-05-24 10:52:00,
2013-05-24 06:02:00,40.0,38.0,30.35,West,260,0.0,0.0,93,0.00,,,0.02,,2013-05-24 11:02:00,
2013-05-24 06:12:00,40.0,38.0,30.35,West,260,0.0,0.0,93,0.00,,,0.02,,2013-05-24 11:12:00,
2013-05-24 06:22:00,40.0,38.0,30.36,West,260,0.0,0.0,94,0.00,,,0.02,,2013-05-24 11:22:00,
2013-05-24 06:32:00,40.0,38.0,30.37,West,260,0.0,0.0,93,0.00,,,0.02,,2013-05-24 11:32:00,
2013-05-24 06:42:00,40.0,38.0,30.37,West,260,0.0,0.0,93,0.00,,,0.02,,2013-05-24 11:42:00,
2013-05-24 06:51:00,41.0,39.0,30.37,West,260,0.0,0.0,94,0.00,,,0.02,,2013-05-24 11:51:00,
2013-05-24 07:02:00,42.0,40.0,30.37,West,260,0.0,0.0,92,0.00,,,0.02,,2013-05-24 12:02:00,
2013-05-24 07:11:00,42.0,40.0,30.37,West,260,0.0,0.0,92,0.00,,,0.02,,2013-05-24 12:11:00,
2013-05-24 07:21:00,42.0,40.0,30.39,West,260,0.0,0.0,91,0.00,,,0.02,,2013-05-24 12:21:00,
2013-05-24 07:32:00,43.0,40.0,30.40,West,260,0.0,0.0,88,0.00,,,0.02,,2013-05-24 12:32:00,
2013-05-24 07:42:00,43.0,40.0,30.40,West,260,0.0,0.0,88,0.00,,,0.02,,2013-05-24 12:42:00,
2013-05-24 07:52:00,43.0,39.0,30.40,West,260,0.0,0.0,86,0.00,,,0.02,,2013-05-24 12:52:00,
2013-05-24 08:02:00,45.0,41.0,30.41,South,181,0.0,0.0,85,0.00,,,0.02,,2013-05-24 13:02:00,
2013-05-24 08:11:00,45.0,41.0,30.41,South,181,0.0,0.0,85,0.00,,,0.02,,2013-05-24 13:11:00,
2013-05-24 08:21:00,45.0,39.0,30.41,South,181,0.0,0.0,80,0.00,,,0.02,,2013-05-24 13:21:00,
2013-05-24 08:32:00,46.0,40.0,30.41,South,181,0.0,0.0,79,0.00,,,0.02,,2013-05-24 13:32:00,
2013-05-24 08:41:00,46.0,40.0,30.41,South,181,0.0,0.0,79,0.00,,,0.02,,2013-05-24 13:41:00,
2013-05-24 08:52:00,46.0,40.0,30.41,South,181,0.0,0.0,79,0.00,,,0.02,,2013-05-24 13:52:00,
2013-05-24 09:01:00,48.0,41.0,30.42,South,181,0.0,0.0,76,0.00,,,0.02,,2013-05-24 14:01:00,
2013-05-24 09:11:00,48.0,41.0,30.42,South,181,0.0,0.0,76,0.00,,,0.02,,2013-05-24 14:11:00,
2013-05-24 09:21:00,48.0,41.0,30.42,South,181,0.0,0.0,76,0.00,,,0.02,,2013-05-24 14:21:00,
2013-05-24 09:32:00,49.0,41.0,30.42,South,181,0.0,0.0,73,0.00,,,0.02,,2013-05-24 14:32:00,
2013-05-24 09:42:00,49.0,41.0,30.42,South,181,0.0,0.0,73,0.00,,,0.02,,2013-05-24 14:42:00,
2013-05-24 09:52:00,49.0,41.0,30.42,South,181,0.0,0.0,73,0.00,,,0.02,,2013-05-24 14:52:00,
2013-05-24 10:02:00,50.0,41.0,30.42,South,181,0.0,0.0,70,0.00,,,0.01,,2013-05-24 15:02:00,
2013-05-24 10:11:00,50.0,41.0,30.42,South,181,0.0,0.0,70,0.00,,,0.01,,2013-05-24 15:11:00,
2013-05-24 10:21:00,51.0,42.0,30.42,South,181,0.0,0.0,70,0.00,,,0.01,,2013-05-24 15:21:00,
2013-05-24 10:32:00,52.0,41.0,30.42,South,181,0.0,0.0,66,0.00,,,0.00,,2013-05-24 15:32:00,
2013-05-24 10:43:00,52.0,41.0,30.42,South,181,0.0,0.0,66,0.00,,,0.00,,2013-05-24 15:43:00,
2013-05-24 10:52:00,52.0,40.0,30.42,South,181,0.0,0.0,64,0.00,,,0.00,,2013-05-24 15:52:00,
2013-05-24 11:03:00,53.0,41.0,30.42,South,181,0.0,0.0,64,0.00,,,0.00,,2013-05-24 16:03:00,
2013-05-24 11:12:00,53.0,41.0,30.42,South,181,0.0,0.0,64,0.00,,,0.00,,2013-05-24 16:12:00,
2013-05-24 11:22:00,53.0,41.0,30.42,South,181,0.0,0.0,63,0.00,,,0.00,,2013-05-24 16:22:00,
2013-05-24 11:32:00,54.0,42.0,30.42,South,181,0.0,0.0,64,0.00,,,0.00,,2013-05-24 16:32:00,
2013-05-24 11:42:00,54.0,42.0,30.42,South,181,0.0,0.0,64,0.00,,,0.00,,2013-05-24 16:42:00,
2013-05-24 11:52:00,54.0,41.0,30.41,South,181,0.0,0.0,62,0.00,,,0.00,,2013-05-24 16:52:00,
2013-05-24 12:02:00,55.0,42.0,30.40,South,181,0.0,0.0,61,0.00,,,0.00,,2013-05-24 17:02:00,
2013-05-24 12:12:00,55.0,42.0,30.40,South,181,0.0,0.0,61,0.00,,,0.00,,2013-05-24 17:12:00,
2013-05-24 12:22:00,56.0,43.0,30.41,South,181,0.0,0.0,62,0.00,,,0.00,,2013-05-24 17:22:00,
2013-05-24 12:32:00,57.0,43.0,30.41,South,181,0.0,0.0,60,0.00,,,0.00,,2013-05-24 17:32:00,
2013-05-24 12:42:00,57.0,43.0,30.41,South,181,0.0,0.0,60,0.00,,,0.00,,2013-05-24 17:42:00,
2013-05-24 12:52:00,57.0,42.0,30.41,South,181,0.0,0.0,58,0.00,,,0.00,,2013-05-24 17:52:00,
2013-05-24 13:01:00,58.0,44.0,30.40,South,181,0.0,0.0,59,0.00,,,0.00,,2013-05-24 18:01:00,
2013-05-24 13:12:00,58.0,44.0,30.40,South,181,0.0,0.0,59,0.00,,,0.00,,2013-05-24 18:12:00,
2013-05-24 13:21:00,58.0,44.0,30.40,South,181,0.0,0.0,59,0.00,,,0.00,,2013-05-24 18:21:00,
2013-05-24 13:32:00,59.0,44.0,30.39,South,181,0.0,0.0,58,0.00,,,0.00,,2013-05-24 18:32:00,
2013-05-24 13:42:00,59.0,44.0,30.39,South,181,0.0,0.0,58,0.00,,,0.00,,2013-05-24 18:42:00,
2013-05-24 13:51:00,60.0,45.0,30.39,South,181,0.0,0.0,57,0.00,,,0.00,,2013-05-24 18:51:00,
2013-05-24 14:01:00,60.0,44.0,30.38,South,181,0.0,0.0,55,0.00,,,0.00,,2013-05-24 19:01:00,
2013-05-24 14:11:00,60.0,44.0,30.38,South,181,0.0,0.0,55,0.00,,,0.00,,2013-05-24 19:11:00,
2013-05-24 14:21:00,60.0,43.0,30.38,South,181,0.0,0.0,54,0.00,,,0.00,,2013-05-24 19:21:00,
2013-05-24 14:32:00,61.0,43.0,30.37,South,181,0.0,0.0,52,0.00,,,0.00,,2013-05-24 19:32:00,
2013-05-24 14:41:00,61.0,43.0,30.37,South,181,0.0,0.0,52,0.00,,,0.00,,2013-05-24 19:41:00,
2013-05-24 14:52:00,62.0,44.0,30.37,South,181,0.0,0.0,52,0.00,,,0.00,,2013-05-24 19:52:00,
2013-05-24 15:02:00,62.0,44.0,30.37,South,181,0.0,0.0,52,0.00,,,0.00,,2013-05-24 20:02:00,
2013-05-24 15:11:00,62.0,44.0,30.37,South,181,0.0,0.0,52,0.00,,,0.00,,2013-05-24 20:11:00,
2013-05-24 15:21:00,62.0,44.0,30.36,South,181,0.0,0.0,52,0.00,,,0.00,,2013-05-24 20:21:00,
2013-05-24 15:32:00,63.0,45.0,30.35,South,181,0.0,0.0,52,0.00,,,0.00,,2013-05-24 20:32:00,
2013-05-24 15:41:00,63.0,45.0,30.35,South,181,0.0,0.0,52,0.00,,,0.00,,2013-05-24 20:41:00,
2013-05-24 15:52:00,63.0,45.0,30.35,South,181,0.0,0.0,51,0.00,,,0.00,,2013-05-24 20:52:00,
2013-05-24 16:01:00,63.0,42.0,30.34,South,181,0.0,0.0,47,0.00,,,0.00,,2013-05-24 21:01:00,
2013-05-24 16:11:00,63.0,42.0,30.34,South,181,0.0,0.0,47,0.00,,,0.00,,2013-05-24 21:11:00,
2013-05-24 16:21:00,63.0,44.0,30.34,South,181,0.0,0.0,49,0.00,,,0.00,,2013-05-24 21:21:00,
2013-05-24 16:32:00,64.0,45.0,30.33,South,181,0.0,0.0,51,0.00,,,0.00,,2013-05-24 21:32:00,
2013-05-24 16:42:00,64.0,45.0,30.33,South,181,0.0,0.0,51,0.00,,,0.00,,2013-05-24 21:42:00,
2013-05-24 16:53:00,64.0,43.0,30.34,South,181,0.0,0.0,47,0.00,,,0.00,,2013-05-24 21:53:00,
2013-05-24 17:02:00,64.0,44.0,30.33,South,181,0.0,0.0,48,0.00,,,0.00,,2013-05-24 22:02:00,
2013-05-24 17:12:00,64.0,44.0,30.33,South,181,0.0,0.0,48,0.00,,,0.00,,2013-05-24 22:12:00,
2013-05-24 17:22:00,65.0,44.0,30.33,South,181,0.0,0.0,46,0.00,,,0.00,,2013-05-24 22:22:00,
2013-05-24 17:33:00,65.0,44.0,30.32,South,181,0.0,0.0,46,0.00,,,0.00,,2013-05-24 22:33:00,
2013-05-24 17:42:00,65.0,44.0,30.32,South,181,0.0,0.0,46,0.00,,,0.00,,2013-05-24 22:42:00,
2013-05-24 17:52:00,65.0,43.0,30.32,South,181,0.0,0.0,44,0.00,,,0.00,,2013-05-24 22:52:00,
2013-05-24 18:02:00,65.0,43.0,30.32,South,181,0.0,0.0,44,0.00,,,0.00,,2013-05-24 23:02:00,
2013-05-24 18:11:00,65.0,43.0,30.32,South,181,0.0,0.0,44,0.00,,,0.00,,2013-05-24 23:11:00,
2013-05-24 18:22:00,65.0,44.0,30.31,South,181,0.0,0.0,46,0.00,,,0.00,,2013-05-24 23:22:00,
2013-05-24 18:32:00,65.0,44.0,30.30,South,181,0.0,0.0,46,0.00,,,0.00,,2013-05-24 23:32:00,
2013-05-24 18:42:00,65.0,44.0,30.30,South,181,0.0,0.0,46,0.00,,,0.00,,2013-05-24 23:42:00,
2013-05-24 18:52:00,65.0,44.0,30.29,South,181,0.0,0.0,46,0.00,,,0.00,,2013-05-24 23:52:00,
2013-05-24 19:01:00,65.0,43.0,30.30,South,181,0.0,0.0,44,0.00,,,0.00,,2013-05-25 00:01:00,
2013-05-24 19:11:00,65.0,43.0,30.30,South,181,0.0,0.0,44,0.00,,,0.00,,2013-05-25 00:11:00,
2013-05-24 19:21:00,65.0,43.0,30.29,South,181,0.0,0.0,45,0.00,,,0.00,,2013-05-25 00:21:00,
2013-05-24 19:32:00,64.0,42.0,30.29,South,181,0.0,0.0,44,0.00,,,0.00,,2013-05-25 00:32:00,
2013-05-24 19:41:00,64.0,42.0,30.29,South,181,0.0,0.0,44,0.00,,,0.00,,2013-05-25 00:41:00,
2013-05-24 19:51:00,64.0,43.0,30.30,South,181,0.0,0.0,47,0.00,,,0.00,,2013-05-25 00:51:00,
2013-05-24 20:01:00,63.0,45.0,30.30,South,181,0.0,0.0,51,0.00,,,0.00,,2013-05-25 01:01:00,
2013-05-24 20:11:00,63.0,45.0,30.30,South,181,0.0,0.0,51,0.00,,,0.00,,2013-05-25 01:11:00,
2013-05-24 20:22:00,62.0,44.0,30.30,South,181,0.0,0.0,52,0.00,,,0.00,,2013-05-25 01:22:00,
2013-05-24 20:32:00,60.0,45.0,30.30,South,181,0.0,0.0,57,0.00,,,0.00,,2013-05-25 01:32:00,
2013-05-24 20:42:00,60.0,45.0,30.30,South,181,0.0,0.0,57,0.00,,,0.00,,2013-05-25 01:42:00,
2013-05-24 20:52:00,59.0,44.0,30.31,South,181,0.0,0.0,57,0.00,,,0.00,,2013-05-25 01:52:00,
2013-05-24 21:02:00,58.0,43.0,30.31,South,181,0.0,0.0,58,0.00,,,0.00,,2013-05-25 02:02:00,
2013-05-24 21:11:00,58.0,43.0,30.31,South,181,0.0,0.0,58,0.00,,,0.00,,2013-05-25 02:11:00,
2013-05-24 21:21:00,57.0,43.0,30.31,South,181,0.0,0.0,60,0.00,,,0.00,,2013-05-25 02:21:00,
2013-05-24 21:32:00,56.0,43.0,30.32,South,181,0.0,0.0,62,0.00,,,0.00,,2013-05-25 02:32:00,
2013-05-24 21:42:00,56.0,43.0,30.32,South,181,0.0,0.0,62,0.00,,,0.00,,2013-05-25 02:42:00,
2013-05-24 21:51:00,55.0,43.0,30.32,South,181,0.0,0.0,65,0.00,,,0.00,,2013-05-25 02:51:00,
2013-05-24 22:02:00,54.0,44.0,30.33,South,181,0.0,0.0,68,0.00,,,0.00,,2013-05-25 03:02:00,
2013-05-24 22:11:00,54.0,44.0,30.33,South,181,0.0,0.0,68,0.00,,,0.00,,2013-05-25 03:11:00,
2013-05-24 22:21:00,54.0,44.0,30.33,South,181,0.0,0.0,69,0.00,,,0.00,,2013-05-25 03:21:00,
2013-05-24 22:32:00,53.0,44.0,30.35,South,181,0.0,0.0,71,0.00,,,0.00,,2013-05-25 03:32:00,
2013-05-24 22:43:00,53.0,44.0,30.35,South,181,0.0,0.0,71,0.00,,,0.00,,2013-05-25 03:43:00,
2013-05-24 22:53:00,52.0,43.0,30.35,South,181,0.0,0.0,72,0.00,,,0.00,,2013-05-25 03:53:00,
2013-05-24 23:02:00,51.0,43.0,30.35,South,181,0.0,0.0,75,0.00,,,0.00,,2013-05-25 04:02:00,
2013-05-24 23:12:00,51.0,43.0,30.35,South,181,0.0,0.0,75,0.00,,,0.00,,2013-05-25 04:12:00,
2013-05-24 23:23:00,51.0,44.0,30.36,South,181,0.0,0.0,76,0.00,,,0.00,,2013-05-25 04:23:00,
2013-05-24 23:33:00,50.0,44.0,30.36,South,181,0.0,0.0,80,0.00,,,0.00,,2013-05-25 04:33:00,
2013-05-24 23:43:00,50.0,44.0,30.36,South,181,0.0,0.0,80,0.00,,,0.00,,2013-05-25 04:43:00,
2013-05-24 23:52:00,50.0,44.0,30.36,South,181,0.0,0.0,80,0.00,,,0.00,,2013-05-25 04:52:00,